Time,TemperatureF,DewpointF,PressureIn,WindDirection,WindDirectionDegrees,WindSpeedMPH,WindSpeedGustMPH,Humidity,HourlyPrecipIn,Conditions,Clouds,dailyrainin,SoftwareType,DateUTC
2013-09-20 00:00:00,61.9,57.0,29.63,SW,229,8.0,-999.0,84,0.00,,,0.00,Wunderground v.1.15,2013-09-20 04:00:00,
2013-09-20 00:05:00,61.7,56.8,29.63,SW,229,8.0,-999.0,84,0.00,,,0.00,Wunderground v.1.15,2013-09-20 04:05:00,
2013-09-20 00:10:00,61.6,56.7,29.63,SW,228,8.0,-999.0,84,0.00,,,0.00,Wunderground v.1.15,2013-09-20 04:10:00,
2013-09-20 00:15:00,61.8,56.9,29.63,SW,227,8.0,-999.0,84,0.00,,,0.00,Wunderground v.1.15,2013-09-20 04:15:00,
2013-09-20 00:20:00,62.1,57.2,29.63,SW,227,8.0,-999.0,84,0.00,,,0.00,Wunderground v.1.15,2013-09-20 04:20:00,
2013-09-20 00:25:00,62.2,57.0,29.63,SW,229,7.0,-999.0,83,0.00,,,0.00,Wunderground v.1.15,2013-09-20 04:25:00,
2013-09-20 00:30:00,62.2,57.0,29.63,SW,229,7.0,-999.0,83,0.00,,,0.00,Wunderground v.1.15,2013-09-20 04:30:00,
2013-09-20 00:35:00,62.2,57.0,29.63,SW,231,6.0,-999.0,83,0.00,,,0.00,Wunderground v.1.15,2013-09-20 04:35:00,
2013-09-20 00:40:00,61.6,56.4,29.63,SW,232,6.0,-999.0,83,0.00,,,0.00,Wunderground v.1.15,2013-09-20 04:40:00,
2013-09-20 00:45:00,61.4,56.5,29.63,SW,232,6.0,-999.0,84,0.00,,,0.00,Wunderground v.1.15,2013-09-20 04:45:00,
2013-09-20 00:55:00,60.7,56.5,29.63,WSW,238,6.0,-999.0,86,0.00,,,0.00,Wunderground v.1.15,2013-09-20 04:55:00,
2013-09-20 01:00:00,60.9,56.7,29.63,WSW,238,7.0,-999.0,86,0.00,,,0.00,Wunderground v.1.15,2013-09-20 05:00:00,
2013-09-20 01:10:00,61.1,56.6,29.63,SW,234,6.0,-999.0,85,0.00,,,0.00,Wunderground v.1.15,2013-09-20 05:10:00,
2013-09-20 01:15:00,61.0,56.8,29.63,SW,234,6.0,-999.0,86,0.00,,,0.00,Wunderground v.1.15,2013-09-20 05:15:00,
2013-09-20 01:20:00,60.9,56.7,29.63,SW,234,6.0,-999.0,86,0.00,,,0.00,Wunderground v.1.15,2013-09-20 05:20:00,
2013-09-20 01:30:00,61.2,57.0,29.63,WSW,241,7.0,-999.0,86,0.00,,,0.00,Wunderground v.1.15,2013-09-20 05:30:00,
2013-09-20 01:35:00,61.1,56.9,29.63,WSW,239,7.0,-999.0,86,0.00,,,0.00,Wunderground v.1.15,2013-09-20 05:35:00,
2013-09-20 01:40:00,61.1,56.9,29.64,WSW,239,7.0,-999.0,86,0.00,,,0.00,Wunderground v.1.15,2013-09-20 05:40:00,
2013-09-20 01:45:00,60.8,56.6,29.64,WSW,241,7.0,-999.0,86,0.00,,,0.00,Wunderground v.1.15,2013-09-20 05:45:00,
2013-09-20 01:50:00,60.6,56.4,29.63,WSW,240,7.0,-999.0,86,0.00,,,0.00,Wunderground v.1.15,2013-09-20 05:50:00,
2013-09-20 01:55:00,60.7,56.8,29.63,WSW,237,8.0,-999.0,87,0.00,,,0.00,Wunderground v.1.15,2013-09-20 05:55:00,
2013-09-20 02:00:00,60.6,56.4,29.63,WSW,238,8.0,-999.0,86,0.00,,,0.00,Wunderground v.1.15,2013-09-20 06:00:00,
2013-09-20 02:10:00,60.6,56.7,29.63,SW,234,7.0,-999.0,87,0.00,,,0.00,Wunderground v.1.15,2013-09-20 06:10:00,
2013-09-20 02:15:00,60.7,56.5,29.63,SW,233,7.0,-999.0,86,0.00,,,0.00,Wunderground v.1.15,2013-09-20 06:15:00,
2013-09-20 02:20:00,60.7,56.5,29.63,SW,231,6.0,-999.0,86,0.00,,,0.00,Wunderground v.1.15,2013-09-20 06:20:00,
2013-09-20 02:25:00,60.4,56.2,29.63,SW,225,7.0,-999.0,86,0.00,,,0.00,Wunderground v.1.15,2013-09-20 06:25:00,
2013-09-20 02:30:00,60.0,56.1,29.63,SW,220,8.0,-999.0,87,0.00,,,0.00,Wunderground v.1.15,2013-09-20 06:30:00,
2013-09-20 02:35:00,59.8,55.9,29.63,SW,224,8.0,-999.0,87,0.00,,,0.00,Wunderground v.1.15,2013-09-20 06:35:00,
2013-09-20 02:40:00,60.0,56.4,29.63,SW,226,8.0,-999.0,88,0.00,,,0.00,Wunderground v.1.15,2013-09-20 06:40:00,
2013-09-20 02:45:00,60.1,56.2,29.63,SW,227,7.0,-999.0,87,0.00,,,0.00,Wunderground v.1.15,2013-09-20 06:45:00,
2013-09-20 02:50:00,60.0,56.1,29.63,SW,224,7.0,-999.0,87,0.00,,,0.00,Wunderground v.1.15,2013-09-20 06:50:00,
2013-09-20 02:55:00,60.3,56.4,29.63,SW,234,7.0,-999.0,87,0.00,,,0.00,Wunderground v.1.15,2013-09-20 06:55:00,
2013-09-20 03:00:00,60.5,56.6,29.63,SW,230,8.0,-999.0,87,0.00,,,0.00,Wunderground v.1.15,2013-09-20 07:00:00,
2013-09-20 03:10:00,60.8,56.6,29.62,SW,229,9.0,-999.0,86,0.00,,,0.00,Wunderground v.1.15,2013-09-20 07:10:00,
2013-09-20 03:15:00,60.9,56.4,29.62,SW,230,10.0,-999.0,85,0.00,,,0.00,Wunderground v.1.15,2013-09-20 07:15:00,
2013-09-20 03:20:00,60.7,56.2,29.62,SW,231,9.0,-999.0,85,0.00,,,0.00,Wunderground v.1.15,2013-09-20 07:20:00,
2013-09-20 03:25:00,60.5,56.3,29.62,SW,228,8.0,-999.0,86,0.00,,,0.00,Wunderground v.1.15,2013-09-20 07:25:00,
2013-09-20 03:35:00,60.3,56.1,29.63,SW,226,9.0,-999.0,86,0.00,,,0.00,Wunderground v.1.15,2013-09-20 07:35:00,
2013-09-20 03:40:00,60.0,55.8,29.62,SW,224,9.0,-999.0,86,0.00,,,0.00,Wunderground v.1.15,2013-09-20 07:40:00,
2013-09-20 03:45:00,59.4,55.5,29.62,SW,222,10.0,-999.0,87,0.00,,,0.00,Wunderground v.1.15,2013-09-20 07:45:00,
2013-09-20 03:50:00,58.9,55.4,29.62,SW,223,9.0,-999.0,88,0.00,,,0.00,Wunderground v.1.15,2013-09-20 07:50:00,
2013-09-20 03:55:00,58.6,55.4,29.62,SW,225,8.0,-999.0,89,0.00,,,0.00,Wunderground v.1.15,2013-09-20 07:55:00,
2013-09-20 04:00:00,58.5,55.6,29.62,SW,226,8.0,-999.0,90,0.00,,,0.00,Wunderground v.1.15,2013-09-20 08:00:00,
2013-09-20 04:10:00,58.8,55.6,29.61,SW,227,8.0,-999.0,89,0.00,,,0.00,Wunderground v.1.15,2013-09-20 08:10:00,
2013-09-20 04:15:00,58.8,55.6,29.61,SW,225,9.0,-999.0,89,0.00,,,0.00,Wunderground v.1.15,2013-09-20 08:15:00,
2013-09-20 04:20:00,58.7,55.5,29.61,SW,226,8.0,-999.0,89,0.00,,,0.00,Wunderground v.1.15,2013-09-20 08:20:00,
2013-09-20 04:25:00,58.6,55.7,29.61,SW,225,8.0,-999.0,90,0.00,,,0.00,Wunderground v.1.15,2013-09-20 08:25:00,
2013-09-20 04:30:00,58.6,55.7,29.61,SW,227,8.0,-999.0,90,0.00,,,0.00,Wunderground v.1.15,2013-09-20 08:30:00,
2013-09-20 04:40:00,58.5,55.6,29.60,SW,223,9.0,-999.0,90,0.00,,,0.00,Wunderground v.1.15,2013-09-20 08:40:00,
2013-09-20 04:45:00,58.4,55.5,29.60,SW,226,9.0,-999.0,90,0.00,,,0.00,Wunderground v.1.15,2013-09-20 08:45:00,
2013-09-20 04:50:00,58.3,55.4,29.60,SW,227,9.0,-999.0,90,0.00,,,0.00,Wunderground v.1.15,2013-09-20 08:50:00,
2013-09-20 04:55:00,58.3,55.4,29.60,SW,222,8.0,-999.0,90,0.00,,,0.00,Wunderground v.1.15,2013-09-20 08:55:00,
2013-09-20 05:00:00,58.5,55.6,29.60,SW,227,8.0,-999.0,90,0.00,,,0.00,Wunderground v.1.15,2013-09-20 09:00:00,
2013-09-20 05:10:00,58.2,55.3,29.60,SW,224,8.0,-999.0,90,0.00,,,0.00,Wunderground v.1.15,2013-09-20 09:10:00,
2013-09-20 05:15:00,57.8,54.9,29.60,SW,223,7.0,-999.0,90,0.00,,,0.00,Wunderground v.1.15,2013-09-20 09:15:00,
2013-09-20 05:20:00,57.5,54.9,29.60,SW,223,6.0,-999.0,91,0.00,,,0.00,Wunderground v.1.15,2013-09-20 09:20:00,
2013-09-20 05:25:00,57.2,54.6,29.60,SW,219,6.0,-999.0,91,0.00,,,0.00,Wunderground v.1.15,2013-09-20 09:25:00,
2013-09-20 05:30:00,57.1,54.8,29.60,SW,215,6.0,-999.0,92,0.00,,,0.00,Wunderground v.1.15,2013-09-20 09:30:00,
2013-09-20 05:35:00,57.0,54.7,29.60,SW,218,6.0,-999.0,92,0.00,,,0.00,Wunderground v.1.15,2013-09-20 09:35:00,
2013-09-20 05:45:00,56.9,54.6,29.60,SW,214,7.0,-999.0,92,0.00,,,0.00,Wunderground v.1.15,2013-09-20 09:45:00,
2013-09-20 05:50:00,56.8,54.8,29.60,SW,217,6.0,-999.0,93,0.00,,,0.00,Wunderground v.1.15,2013-09-20 09:50:00,
2013-09-20 05:55:00,56.7,54.7,29.60,SW,215,6.0,-999.0,93,0.00,,,0.00,Wunderground v.1.15,2013-09-20 09:55:00,
2013-09-20 06:00:00,56.6,54.6,29.60,SW,219,6.0,-999.0,93,0.00,,,0.00,Wunderground v.1.15,2013-09-20 10:00:00,
2013-09-20 06:10:00,56.3,54.3,29.60,SW,226,6.0,-999.0,93,0.00,,,0.00,Wunderground v.1.15,2013-09-20 10:10:00,
2013-09-20 06:20:00,56.3,54.3,29.60,SW,226,6.0,-999.0,93,0.00,,,0.00,Wunderground v.1.15,2013-09-20 10:20:00,
2013-09-20 06:25:00,56.4,54.7,29.61,SW,229,7.0,-999.0,94,0.00,,,0.00,Wunderground v.1.15,2013-09-20 10:25:00,
2013-09-20 06:30:00,56.6,54.9,29.61,SW,229,7.0,-999.0,94,0.00,,,0.00,Wunderground v.1.15,2013-09-20 10:30:00,
2013-09-20 06:35:00,56.6,54.9,29.60,SW,219,7.0,-999.0,94,0.00,,,0.00,Wunderground v.1.15,2013-09-20 10:35:00,
2013-09-20 06:40:00,56.7,55.0,29.60,SW,223,6.0,-999.0,94,0.00,,,0.00,Wunderground v.1.15,2013-09-20 10:40:00,
2013-09-20 06:50:00,57.2,55.5,29.61,WSW,238,8.0,-999.0,94,0.00,,,0.00,Wunderground v.1.15,2013-09-20 10:50:00,
2013-09-20 06:55:00,57.0,55.0,29.61,SW,230,8.0,-999.0,93,0.00,,,0.00,Wunderground v.1.15,2013-09-20 10:55:00,
2013-09-20 07:00:00,57.1,55.1,29.60,SW,225,7.0,-999.0,93,0.00,,,0.00,Wunderground v.1.15,2013-09-20 11:00:00,
2013-09-20 07:10:00,57.1,55.1,29.60,SW,221,6.0,-999.0,93,0.00,,,0.00,Wunderground v.1.15,2013-09-20 11:10:00,
2013-09-20 07:15:00,57.1,55.1,29.60,SW,217,6.0,-999.0,93,0.00,,,0.00,Wunderground v.1.15,2013-09-20 11:15:00,
2013-09-20 07:25:00,57.1,55.1,29.61,SW,224,7.0,-999.0,93,0.00,,,0.00,Wunderground v.1.15,2013-09-20 11:25:00,
2013-09-20 07:30:00,57.5,55.5,29.61,SW,225,6.0,-999.0,93,0.00,,,0.00,Wunderground v.1.15,2013-09-20 11:30:00,
2013-09-20 07:35:00,57.9,55.9,29.61,SW,223,6.0,-999.0,93,0.00,,,0.00,Wunderground v.1.15,2013-09-20 11:35:00,
2013-09-20 07:40:00,58.0,56.0,29.61,SW,222,6.0,-999.0,93,0.00,,,0.00,Wunderground v.1.15,2013-09-20 11:40:00,
2013-09-20 07:45:00,58.1,55.8,29.61,SW,222,6.0,-999.0,92,0.00,,,0.00,Wunderground v.1.15,2013-09-20 11:45:00,
2013-09-20 07:55:00,58.5,56.5,29.60,SW,222,5.0,-999.0,93,0.00,,,0.00,Wunderground v.1.15,2013-09-20 11:55:00,
2013-09-20 08:00:00,58.5,56.2,29.60,SW,216,5.0,-999.0,92,0.00,,,0.00,Wunderground v.1.15,2013-09-20 12:00:00,
2013-09-20 08:10:00,58.6,56.3,29.59,SSW,202,6.0,-999.0,92,0.00,,,0.00,Wunderground v.1.15,2013-09-20 12:10:00,
2013-09-20 08:15:00,58.8,56.5,29.60,SSW,203,6.0,-999.0,92,0.00,,,0.00,Wunderground v.1.15,2013-09-20 12:15:00,
2013-09-20 08:20:00,58.9,56.6,29.60,SSW,202,6.0,-999.0,92,0.00,,,0.00,Wunderground v.1.15,2013-09-20 12:20:00,
2013-09-20 08:30:00,59.0,56.7,29.59,SSW,210,7.0,-999.0,92,0.00,,,0.00,Wunderground v.1.15,2013-09-20 12:30:00,
2013-09-20 08:35:00,59.1,56.8,29.60,SW,214,7.0,-999.0,92,0.00,,,0.00,Wunderground v.1.15,2013-09-20 12:35:00,
2013-09-20 08:40:00,59.3,57.0,29.60,SSW,211,7.0,-999.0,92,0.00,,,0.00,Wunderground v.1.15,2013-09-20 12:40:00,
2013-09-20 08:45:00,59.5,57.2,29.60,SSW,213,7.0,-999.0,92,0.00,,,0.00,Wunderground v.1.15,2013-09-20 12:45:00,
2013-09-20 08:50:00,60.0,57.7,29.60,SSW,202,7.0,-999.0,92,0.00,,,0.00,Wunderground v.1.15,2013-09-20 12:50:00,
2013-09-20 08:55:00,60.4,57.8,29.60,SW,220,7.0,-999.0,91,0.00,,,0.00,Wunderground v.1.15,2013-09-20 12:55:00,
2013-09-20 09:05:00,61.0,57.7,29.60,SSW,209,7.0,-999.0,89,0.00,,,0.00,Wunderground v.1.15,2013-09-20 13:05:00,
2013-09-20 09:10:00,61.1,57.8,29.59,SSW,207,8.0,-999.0,89,0.00,,,0.00,Wunderground v.1.15,2013-09-20 13:10:00,
2013-09-20 09:15:00,61.4,58.4,29.59,SSW,205,8.0,-999.0,90,0.00,,,0.00,Wunderground v.1.15,2013-09-20 13:15:00,
2013-09-20 09:20:00,61.8,58.5,29.59,SSW,209,8.0,-999.0,89,0.00,,,0.00,Wunderground v.1.15,2013-09-20 13:20:00,
2013-09-20 09:25:00,62.4,59.1,29.59,SSW,207,7.0,-999.0,89,0.00,,,0.00,Wunderground v.1.15,2013-09-20 13:25:00,
2013-09-20 09:35:00,62.8,58.9,29.59,SSW,208,8.0,-999.0,87,0.00,,,0.00,Wunderground v.1.15,2013-09-20 13:35:00,
2013-09-20 09:40:00,63.1,59.5,29.59,SSW,205,8.0,-999.0,88,0.00,,,0.00,Wunderground v.1.15,2013-09-20 13:40:00,
2013-09-20 09:45:00,63.7,60.1,29.59,SSW,212,7.0,-999.0,88,0.00,,,0.00,Wunderground v.1.15,2013-09-20 13:45:00,
2013-09-20 09:50:00,64.1,59.8,29.59,SSW,195,7.0,-999.0,86,0.00,,,0.00,Wunderground v.1.15,2013-09-20 13:50:00,
2013-09-20 09:55:00,64.5,60.2,29.59,SSW,210,8.0,-999.0,86,0.00,,,0.00,Wunderground v.1.15,2013-09-20 13:55:00,
2013-09-20 10:00:00,64.9,60.3,29.59,SW,220,8.0,-999.0,85,0.00,,,0.00,Wunderground v.1.15,2013-09-20 14:00:00,
2013-09-20 10:10:00,65.3,60.3,29.59,SW,231,9.0,-999.0,84,0.00,,,0.00,Wunderground v.1.15,2013-09-20 14:10:00,
2013-09-20 10:15:00,65.3,60.3,29.59,SW,224,10.0,-999.0,84,0.00,,,0.00,Wunderground v.1.15,2013-09-20 14:15:00,
2013-09-20 10:20:00,65.5,60.5,29.58,SW,224,10.0,-999.0,84,0.00,,,0.00,Wunderground v.1.15,2013-09-20 14:20:00,
2013-09-20 10:25:00,65.9,60.9,29.58,SSW,205,9.0,-999.0,84,0.00,,,0.00,Wunderground v.1.15,2013-09-20 14:25:00,
2013-09-20 10:30:00,66.3,61.0,29.58,SSW,197,8.0,-999.0,83,0.00,,,0.00,Wunderground v.1.15,2013-09-20 14:30:00,
2013-09-20 10:40:00,67.0,61.7,29.57,SW,223,8.0,-999.0,83,0.00,,,0.00,Wunderground v.1.15,2013-09-20 14:40:00,
2013-09-20 10:45:00,67.4,61.7,29.57,SW,216,8.0,-999.0,82,0.00,,,0.00,Wunderground v.1.15,2013-09-20 14:45:00,
2013-09-20 10:50:00,67.7,61.7,29.57,SSW,199,8.0,-999.0,81,0.00,,,0.00,Wunderground v.1.15,2013-09-20 14:50:00,
2013-09-20 10:55:00,68.0,61.9,29.57,SSW,203,8.0,-999.0,81,0.00,,,0.00,Wunderground v.1.15,2013-09-20 14:55:00,
2013-09-20 11:00:00,68.1,61.7,29.57,SSW,204,9.0,-999.0,80,0.00,,,0.00,Wunderground v.1.15,2013-09-20 15:00:00,
2013-09-20 11:10:00,68.5,61.7,29.56,SSW,202,9.0,-999.0,79,0.00,,,0.00,Wunderground v.1.15,2013-09-20 15:10:00,
2013-09-20 11:15:00,68.8,62.0,29.56,SSW,200,9.0,-999.0,79,0.00,,,0.00,Wunderground v.1.15,2013-09-20 15:15:00,
2013-09-20 11:20:00,69.4,63.0,29.56,SSW,205,9.0,-999.0,80,0.00,,,0.00,Wunderground v.1.15,2013-09-20 15:20:00,
2013-09-20 11:25:00,69.4,62.2,29.56,SSW,198,10.0,-999.0,78,0.00,,,0.00,Wunderground v.1.15,2013-09-20 15:25:00,
2013-09-20 11:30:00,69.8,63.0,29.55,SSW,196,10.0,-999.0,79,0.00,,,0.00,Wunderground v.1.15,2013-09-20 15:30:00,
2013-09-20 11:35:00,70.3,62.7,29.55,SSW,195,10.0,-999.0,77,0.00,,,0.00,Wunderground v.1.15,2013-09-20 15:35:00,
2013-09-20 11:45:00,70.5,62.9,29.55,SSW,205,10.0,-999.0,77,0.00,,,0.00,Wunderground v.1.15,2013-09-20 15:45:00,
2013-09-20 12:30:00,72.7,64.3,29.53,SSW,205,9.0,-999.0,75,0.00,,,0.00,Wunderground v.1.15,2013-09-20 16:30:00,
2013-09-20 12:35:00,72.6,63.8,29.53,SSW,195,9.0,-999.0,74,0.00,,,0.00,Wunderground v.1.15,2013-09-20 16:35:00,
2013-09-20 12:40:00,72.9,63.7,29.53,SSW,211,9.0,-999.0,73,0.00,,,0.00,Wunderground v.1.15,2013-09-20 16:40:00,
2013-09-20 12:45:00,73.3,64.5,29.52,South,186,9.0,-999.0,74,0.00,,,0.00,Wunderground v.1.15,2013-09-20 16:45:00,
2013-09-20 14:00:00,76.8,65.4,29.49,South,171,7.0,-999.0,68,0.00,,,0.00,Wunderground v.1.15,2013-09-20 18:00:00,
2013-09-20 14:10:00,76.7,65.8,29.48,SSE,153,8.0,-999.0,69,0.00,,,0.00,Wunderground v.1.15,2013-09-20 18:10:00,
2013-09-20 14:15:00,76.7,65.3,29.48,SSE,166,8.0,-999.0,68,0.00,,,0.00,Wunderground v.1.15,2013-09-20 18:15:00,
2013-09-20 14:20:00,76.8,65.9,29.47,South,176,9.0,-999.0,69,0.00,,,0.00,Wunderground v.1.15,2013-09-20 18:20:00,
2013-09-20 14:25:00,76.9,65.5,29.47,South,190,9.0,-999.0,68,0.00,,,0.00,Wunderground v.1.15,2013-09-20 18:25:00,
2013-09-20 14:30:00,77.2,65.4,29.46,SSE,167,9.0,-999.0,67,0.00,,,0.00,Wunderground v.1.15,2013-09-20 18:30:00,
2013-09-20 14:35:00,77.4,66.0,29.45,South,172,9.0,-999.0,68,0.00,,,0.00,Wunderground v.1.15,2013-09-20 18:35:00,
2013-09-20 14:45:00,77.3,65.5,29.45,SSW,192,10.0,-999.0,67,0.00,,,0.00,Wunderground v.1.15,2013-09-20 18:45:00,
2013-09-20 14:50:00,77.5,65.7,29.45,South,185,10.0,-999.0,67,0.00,,,0.00,Wunderground v.1.15,2013-09-20 18:50:00,
2013-09-20 14:55:00,77.9,65.6,29.45,SSW,205,8.0,-999.0,66,0.00,,,0.00,Wunderground v.1.15,2013-09-20 18:55:00,
2013-09-20 15:00:00,78.0,65.7,29.45,South,190,8.0,-999.0,66,0.00,,,0.00,Wunderground v.1.15,2013-09-20 19:00:00,
2013-09-20 15:10:00,78.5,65.8,29.44,SSW,213,7.0,-999.0,65,0.00,,,0.00,Wunderground v.1.15,2013-09-20 19:10:00,
2013-09-20 15:15:00,78.7,66.4,29.45,SSW,202,8.0,-999.0,66,0.00,,,0.00,Wunderground v.1.15,2013-09-20 19:15:00,
2013-09-20 15:45:00,77.9,65.2,29.43,SSW,205,8.0,-999.0,65,0.00,,,0.00,Wunderground v.1.15,2013-09-20 19:45:00,
2013-09-20 15:50:00,78.2,65.5,29.43,SSW,208,8.0,-999.0,65,0.00,,,0.00,Wunderground v.1.15,2013-09-20 19:50:00,
2013-09-20 15:55:00,78.2,65.5,29.43,SSW,207,7.0,-999.0,65,0.00,,,0.00,Wunderground v.1.15,2013-09-20 19:55:00,
2013-09-20 16:00:00,78.4,65.7,29.43,South,190,6.0,-999.0,65,0.00,,,0.00,Wunderground v.1.15,2013-09-20 20:00:00,
2013-09-20 16:10:00,78.7,65.5,29.43,SSW,199,8.0,-999.0,64,0.00,,,0.00,Wunderground v.1.15,2013-09-20 20:10:00,
2013-09-20 16:15:00,78.9,65.2,29.43,SSW,203,9.0,-999.0,63,0.00,,,0.00,Wunderground v.1.15,2013-09-20 20:15:00,
2013-09-20 16:25:00,78.6,65.4,29.43,SSW,200,9.0,-999.0,64,0.00,,,0.00,Wunderground v.1.15,2013-09-20 20:25:00,
2013-09-20 16:30:00,78.4,65.2,29.43,SSW,197,8.0,-999.0,64,0.00,,,0.00,Wunderground v.1.15,2013-09-20 20:30:00,
2013-09-20 16:35:00,78.5,65.8,29.42,SSW,207,8.0,-999.0,65,0.00,,,0.00,Wunderground v.1.15,2013-09-20 20:35:00,
2013-09-20 16:40:00,78.3,65.1,29.42,SSW,204,8.0,-999.0,64,0.00,,,0.00,Wunderground v.1.15,2013-09-20 20:40:00,
2013-09-20 16:45:00,78.3,65.6,29.42,SSW,198,8.0,-999.0,65,0.00,,,0.00,Wunderground v.1.15,2013-09-20 20:45:00,
2013-09-20 16:55:00,77.9,65.2,29.42,SSW,198,10.0,-999.0,65,0.00,,,0.00,Wunderground v.1.15,2013-09-20 20:55:00,
2013-09-20 17:00:00,77.8,65.5,29.42,SW,216,9.0,-999.0,66,0.00,,,0.00,Wunderground v.1.15,2013-09-20 21:00:00,
2013-09-20 17:10:00,77.6,65.8,29.42,SSW,199,7.0,-999.0,67,0.00,,,0.00,Wunderground v.1.15,2013-09-20 21:10:00,
2013-09-20 17:15:00,77.4,65.6,29.42,SSW,203,8.0,-999.0,67,0.00,,,0.00,Wunderground v.1.15,2013-09-20 21:15:00,
2013-09-20 17:20:00,77.3,65.5,29.42,SSW,201,8.0,-999.0,67,0.00,,,0.00,Wunderground v.1.15,2013-09-20 21:20:00,
2013-09-20 17:30:00,76.9,65.1,29.42,SSW,199,8.0,-999.0,67,0.00,,,0.00,Wunderground v.1.15,2013-09-20 21:30:00,
2013-09-20 17:35:00,76.8,65.4,29.42,SSW,201,8.0,-999.0,68,0.00,,,0.00,Wunderground v.1.15,2013-09-20 21:35:00,
2013-09-20 17:40:00,76.6,65.2,29.41,SSW,200,8.0,-999.0,68,0.00,,,0.00,Wunderground v.1.15,2013-09-20 21:40:00,
2013-09-20 17:45:00,76.3,65.4,29.41,SSW,208,8.0,-999.0,69,0.00,,,0.00,Wunderground v.1.15,2013-09-20 21:45:00,
2013-09-20 17:50:00,76.2,65.3,29.41,SSW,196,7.0,-999.0,69,0.00,,,0.00,Wunderground v.1.15,2013-09-20 21:50:00,
2013-09-20 18:00:00,75.6,65.1,29.41,SSW,213,6.0,-999.0,70,0.00,,,0.00,Wunderground v.1.15,2013-09-20 22:00:00,
2013-09-20 18:10:00,75.3,65.2,29.41,South,184,6.0,-999.0,71,0.00,,,0.00,Wunderground v.1.15,2013-09-20 22:10:00,
2013-09-20 18:15:00,75.2,65.1,29.41,SSW,201,6.0,-999.0,71,0.00,,,0.00,Wunderground v.1.15,2013-09-20 22:15:00,
2013-09-20 18:20:00,75.0,65.0,29.41,South,191,7.0,-999.0,71,0.00,,,0.00,Wunderground v.1.15,2013-09-20 22:20:00,
2013-09-20 18:25:00,74.8,65.2,29.41,SSW,201,6.0,-999.0,72,0.00,,,0.00,Wunderground v.1.15,2013-09-20 22:25:00,
2013-09-20 18:35:00,74.3,65.5,29.40,SSW,196,4.0,-999.0,74,0.00,,,0.00,Wunderground v.1.15,2013-09-20 22:35:00,
2013-09-20 18:40:00,73.9,65.1,29.40,SSW,196,3.0,-999.0,74,0.00,,,0.00,Wunderground v.1.15,2013-09-20 22:40:00,
2013-09-20 18:45:00,73.7,65.3,29.40,SSW,193,3.0,-999.0,75,0.00,,,0.00,Wunderground v.1.15,2013-09-20 22:45:00,
2013-09-20 18:50:00,73.5,65.1,29.39,SSW,196,4.0,-999.0,75,0.00,,,0.00,Wunderground v.1.15,2013-09-20 22:50:00,
2013-09-20 18:55:00,73.4,65.0,29.39,SSW,199,5.0,-999.0,75,0.00,,,0.00,Wunderground v.1.15,2013-09-20 22:55:00,
2013-09-20 19:00:00,73.3,64.9,29.39,SSW,196,5.0,-999.0,75,0.00,,,0.00,Wunderground v.1.15,2013-09-20 23:00:00,
2013-09-20 19:10:00,73.1,64.3,29.39,SSW,201,7.0,-999.0,74,0.00,,,0.00,Wunderground v.1.15,2013-09-20 23:10:00,
2013-09-20 19:15:00,72.9,64.5,29.39,SSW,193,7.0,-999.0,75,0.00,,,0.00,Wunderground v.1.15,2013-09-20 23:15:00,
2013-09-20 19:20:00,72.8,64.4,29.39,SSW,204,7.0,-999.0,75,0.00,,,0.00,Wunderground v.1.15,2013-09-20 23:20:00,
2013-09-20 19:25:00,72.6,64.2,29.39,SSW,202,6.0,-999.0,75,0.00,,,0.00,Wunderground v.1.15,2013-09-20 23:25:00,
2013-09-20 19:30:00,72.4,64.4,29.39,SSW,201,6.0,-999.0,76,0.00,,,0.00,Wunderground v.1.15,2013-09-20 23:30:00,
2013-09-20 19:35:00,72.2,64.2,29.39,SSW,209,6.0,-999.0,76,0.00,,,0.00,Wunderground v.1.15,2013-09-20 23:35:00,
2013-09-20 19:40:00,72.1,64.1,29.40,SSW,202,6.0,-999.0,76,0.00,,,0.00,Wunderground v.1.15,2013-09-20 23:40:00,
2013-09-20 19:45:00,72.0,64.0,29.40,SSW,201,5.0,-999.0,76,0.00,,,0.00,Wunderground v.1.15,2013-09-20 23:45:00,
2013-09-20 19:50:00,72.0,64.0,29.40,SSW,207,6.0,-999.0,76,0.00,,,0.00,Wunderground v.1.15,2013-09-20 23:50:00,
2013-09-20 19:55:00,72.0,64.0,29.40,SSW,207,6.0,-999.0,76,0.00,,,0.00,Wunderground v.1.15,2013-09-20 23:55:00,
2013-09-20 20:00:00,71.8,64.2,29.40,SSW,200,6.0,-999.0,77,0.00,,,0.00,Wunderground v.1.15,2013-09-21 00:00:00,
2013-09-20 20:50:00,70.2,63.4,29.40,SSW,196,5.0,-999.0,79,0.00,,,0.00,Wunderground v.1.15,2013-09-21 00:50:00,
2013-09-20 20:55:00,70.1,63.3,29.40,SSW,195,5.0,-999.0,79,0.00,,,0.00,Wunderground v.1.15,2013-09-21 00:55:00,
2013-09-20 21:00:00,70.0,63.2,29.40,SSW,192,5.0,-999.0,79,0.00,,,0.00,Wunderground v.1.15,2013-09-21 01:00:00,
2013-09-20 21:10:00,70.2,63.0,29.40,South,189,7.0,-999.0,78,0.00,,,0.00,Wunderground v.1.15,2013-09-21 01:10:00,
2013-09-20 21:20:00,70.1,62.9,29.40,SSW,192,7.0,-999.0,78,0.00,,,0.00,Wunderground v.1.15,2013-09-21 01:20:00,
2013-09-20 21:30:00,70.1,62.9,29.40,SSW,192,8.0,-999.0,78,0.00,,,0.00,Wunderground v.1.15,2013-09-21 01:30:00,
2013-09-20 21:35:00,70.1,62.9,29.40,SSW,192,8.0,-999.0,78,0.00,,,0.00,Wunderground v.1.15,2013-09-21 01:35:00,
2013-09-20 21:40:00,70.2,62.6,29.40,SSW,192,8.0,-999.0,77,0.00,,,0.00,Wunderground v.1.15,2013-09-21 01:40:00,
2013-09-20 21:45:00,70.3,62.7,29.39,SSW,200,9.0,-999.0,77,0.00,,,0.00,Wunderground v.1.15,2013-09-21 01:45:00,
2013-09-20 21:50:00,70.3,62.7,29.39,SSW,200,9.0,-999.0,77,0.00,,,0.00,Wunderground v.1.15,2013-09-21 01:50:00,
2013-09-20 22:00:00,70.1,62.6,29.39,South,182,8.0,-999.0,77,0.00,,,0.00,Wunderground v.1.15,2013-09-21 02:00:00,
2013-09-20 22:10:00,70.0,62.1,29.39,SSW,204,9.0,-999.0,76,0.00,,,0.00,Wunderground v.1.15,2013-09-21 02:10:00,
2013-09-20 22:15:00,70.1,62.2,29.39,SSW,196,10.0,-999.0,76,0.00,,,0.00,Wunderground v.1.15,2013-09-21 02:15:00,
2013-09-20 22:20:00,70.1,62.2,29.39,SSW,200,11.0,-999.0,76,0.00,,,0.00,Wunderground v.1.15,2013-09-21 02:20:00,
2013-09-20 22:30:00,69.6,62.1,29.38,SSW,196,9.0,-999.0,77,0.00,,,0.00,Wunderground v.1.15,2013-09-21 02:30:00,
2013-09-20 22:35:00,69.4,61.9,29.38,SSW,194,9.0,-999.0,77,0.00,,,0.00,Wunderground v.1.15,2013-09-21 02:35:00,
2013-09-20 22:40:00,69.4,61.9,29.38,South,190,9.0,-999.0,77,0.00,,,0.00,Wunderground v.1.15,2013-09-21 02:40:00,
2013-09-20 22:45:00,69.5,61.6,29.38,SSW,196,10.0,-999.0,76,0.00,,,0.00,Wunderground v.1.15,2013-09-21 02:45:00,
2013-09-20 22:50:00,69.4,61.9,29.38,SSW,200,9.0,-999.0,77,0.00,,,0.00,Wunderground v.1.15,2013-09-21 02:50:00,
2013-09-20 22:55:00,69.2,61.7,29.39,SSW,197,9.0,-999.0,77,0.00,,,0.00,Wunderground v.1.15,2013-09-21 02:55:00,
2013-09-20 23:00:00,69.3,61.8,29.39,SSW,196,10.0,-999.0,77,0.00,,,0.00,Wunderground v.1.15,2013-09-21 03:00:00,
2013-09-20 23:10:00,69.2,61.7,29.38,South,184,10.0,-999.0,77,0.00,,,0.00,Wunderground v.1.15,2013-09-21 03:10:00,
2013-09-20 23:15:00,69.4,61.5,29.38,South,181,10.0,-999.0,76,0.00,,,0.00,Wunderground v.1.15,2013-09-21 03:15:00,
2013-09-20 23:20:00,69.3,61.4,29.38,SSW,201,10.0,-999.0,76,0.00,,,0.00,Wunderground v.1.15,2013-09-21 03:20:00,
2013-09-20 23:25:00,69.2,61.3,29.38,South,187,10.0,-999.0,76,0.00,,,0.00,Wunderground v.1.15,2013-09-21 03:25:00,
2013-09-20 23:35:00,69.0,61.5,29.37,SSW,201,10.0,-999.0,77,0.00,,,0.00,Wunderground v.1.15,2013-09-21 03:35:00,
2013-09-20 23:40:00,69.0,61.5,29.37,SSW,207,10.0,-999.0,77,0.00,,,0.00,Wunderground v.1.15,2013-09-21 03:40:00,
2013-09-20 23:45:00,68.8,61.3,29.37,SSW,200,10.0,-999.0,77,0.00,,,0.00,Wunderground v.1.15,2013-09-21 03:45:00,
2013-09-20 23:50:00,68.8,61.3,29.37,SSW,203,11.0,-999.0,77,0.00,,,0.00,Wunderground v.1.15,2013-09-21 03:50:00,
2013-09-20 23:55:00,68.8,61.3,29.36,SSW,204,12.0,-999.0,77,0.00,,,0.00,Wunderground v.1.15,2013-09-21 03:55:00,